Year,Month,Day,Hour,Minute,Value (Times are PST for temperature in C)
2014,07,21,00,00,14.70
2014,07,21,00,01,14.70
2014,07,21,00,02,14.60
2014,07,21,00,03,14.60
2014,07,21,00,04,14.60
2014,07,21,00,05,14.60
2014,07,21,00,06,14.60
2014,07,21,00,07,14.60
2014,07,21,00,08,14.60
2014,07,21,00,09,14.60
2014,07,21,00,10,14.60
2014,07,21,00,11,14.60
2014,07,21,00,12,14.60
2014,07,21,00,13,14.60
2014,07,21,00,14,14.60
2014,07,21,00,15,14.60
2014,07,21,00,16,14.60
2014,07,21,00,17,14.60
2014,07,21,00,18,14.60
2014,07,21,00,19,14.60
2014,07,21,00,20,14.60
2014,07,21,00,21,14.60
2014,07,21,00,22,14.60
2014,07,21,00,23,14.60
2014,07,21,00,24,14.60
2014,07,21,00,25,14.60
2014,07,21,00,26,14.50
2014,07,21,00,27,14.60
2014,07,21,00,28,14.60
2014,07,21,00,29,14.60
2014,07,21,00,30,14.60
2014,07,21,00,31,14.60
2014,07,21,00,32,14.60
2014,07,21,00,33,14.50
2014,07,21,00,34,14.60
2014,07,21,00,35,14.60
2014,07,21,00,36,14.50
2014,07,21,00,37,14.60
2014,07,21,00,38,14.60
2014,07,21,00,39,14.60
2014,07,21,00,40,14.50
2014,07,21,00,41,14.50
2014,07,21,00,42,14.50
2014,07,21,00,43,14.50
2014,07,21,00,44,14.50
2014,07,21,00,45,14.50
2014,07,21,00,46,14.50
2014,07,21,00,47,14.50
2014,07,21,00,48,14.50
2014,07,21,00,49,14.50
2014,07,21,00,50,14.50
2014,07,21,00,51,14.50
2014,07,21,00,52,14.50
2014,07,21,00,53,14.50
2014,07,21,00,54,14.50
2014,07,21,00,55,14.50
2014,07,21,00,56,14.50
2014,07,21,00,57,14.40
2014,07,21,00,58,14.40
2014,07,21,00,59,14.40
2014,07,21,01,00,14.40
2014,07,21,01,01,14.40
2014,07,21,01,02,14.40
2014,07,21,01,03,14.40
2014,07,21,01,04,14.40
2014,07,21,01,05,14.40
2014,07,21,01,06,14.40
2014,07,21,01,07,14.40
2014,07,21,01,08,14.40
2014,07,21,01,09,14.40
2014,07,21,01,10,14.40
2014,07,21,01,11,14.40
2014,07,21,01,12,14.40
2014,07,21,01,13,14.40
2014,07,21,01,14,14.40
2014,07,21,01,15,14.40
2014,07,21,01,16,14.40
2014,07,21,01,17,14.40
2014,07,21,01,18,14.40
2014,07,21,01,19,14.40
2014,07,21,01,20,14.40
2014,07,21,01,21,14.40
2014,07,21,01,22,14.40
2014,07,21,01,23,14.40
2014,07,21,01,24,14.40
2014,07,21,01,25,14.40
2014,07,21,01,26,14.40
2014,07,21,01,27,14.40
2014,07,21,01,28,14.40
2014,07,21,01,29,14.40
2014,07,21,01,30,14.30
2014,07,21,01,31,14.30
2014,07,21,01,32,14.30
2014,07,21,01,33,14.30
2014,07,21,01,34,14.30
2014,07,21,01,35,14.30
2014,07,21,01,36,14.30
2014,07,21,01,37,14.30
2014,07,21,01,38,14.20
2014,07,21,01,39,14.20
2014,07,21,01,40,14.20
2014,07,21,01,41,14.20
2014,07,21,01,42,14.10
2014,07,21,01,43,14.10
2014,07,21,01,44,14.10
2014,07,21,01,45,14.10
2014,07,21,01,46,14.10
2014,07,21,01,47,14.10
2014,07,21,01,48,14.10
2014,07,21,01,49,14.10
2014,07,21,01,50,14.10
2014,07,21,01,51,14.10
2014,07,21,01,52,14.10
2014,07,21,01,53,14.10
2014,07,21,01,54,14.10
2014,07,21,01,55,14.10
2014,07,21,01,56,14.10
2014,07,21,01,57,14.10
2014,07,21,01,58,14.00
2014,07,21,01,59,14.00
2014,07,21,02,00,14.00
2014,07,21,02,01,13.90
2014,07,21,02,02,13.90
2014,07,21,02,03,13.90
2014,07,21,02,04,13.90
2014,07,21,02,05,13.90
2014,07,21,02,06,13.90
2014,07,21,02,07,13.90
2014,07,21,02,08,13.80
2014,07,21,02,09,13.80
2014,07,21,02,10,13.80
2014,07,21,02,11,13.80
2014,07,21,02,12,13.80
2014,07,21,02,13,13.80
2014,07,21,02,14,13.80
2014,07,21,02,15,13.80
2014,07,21,02,16,13.70
2014,07,21,02,17,13.70
2014,07,21,02,18,13.70
2014,07,21,02,19,13.70
2014,07,21,02,20,13.70
2014,07,21,02,21,13.70
2014,07,21,02,22,13.60
2014,07,21,02,23,13.60
2014,07,21,02,24,13.60
2014,07,21,02,25,13.60
2014,07,21,02,26,13.50
2014,07,21,02,27,13.50
2014,07,21,02,28,13.50
2014,07,21,02,29,13.40
2014,07,21,02,30,13.40
2014,07,21,02,31,13.40
2014,07,21,02,32,13.40
2014,07,21,02,33,13.40
2014,07,21,02,34,13.40
2014,07,21,02,35,13.30
2014,07,21,02,36,13.30
2014,07,21,02,37,13.30
2014,07,21,02,38,13.30
2014,07,21,02,39,13.20
2014,07,21,02,40,13.20
2014,07,21,02,41,13.20
2014,07,21,02,42,13.10
2014,07,21,02,43,13.10
2014,07,21,02,44,13.10
2014,07,21,02,45,13.10
2014,07,21,02,46,13.00
2014,07,21,02,47,13.00
2014,07,21,02,48,12.90
2014,07,21,02,49,12.90
2014,07,21,02,50,12.90
2014,07,21,02,51,12.90
2014,07,21,02,52,12.90
2014,07,21,02,53,12.80
2014,07,21,02,54,12.80
2014,07,21,02,55,12.80
2014,07,21,02,56,12.70
2014,07,21,02,57,12.70
2014,07,21,02,58,12.70
2014,07,21,02,59,12.70
2014,07,21,03,00,12.60
2014,07,21,03,01,12.60
2014,07,21,03,02,12.60
2014,07,21,03,03,12.60
2014,07,21,03,04,12.50
2014,07,21,03,05,12.50
2014,07,21,03,06,12.50
2014,07,21,03,07,12.40
2014,07,21,03,08,12.40
2014,07,21,03,09,12.40
2014,07,21,03,10,12.40
2014,07,21,03,11,12.40
2014,07,21,03,12,12.30
2014,07,21,03,13,12.30
2014,07,21,03,14,12.30
2014,07,21,03,15,12.30
2014,07,21,03,16,12.30
2014,07,21,03,17,12.30
2014,07,21,03,18,12.20
2014,07,21,03,19,12.20
2014,07,21,03,20,12.20
2014,07,21,03,21,12.20
2014,07,21,03,22,12.20
2014,07,21,03,23,12.20
2014,07,21,03,24,12.10
2014,07,21,03,25,12.10
2014,07,21,03,26,12.10
2014,07,21,03,27,12.10
2014,07,21,03,28,12.00
2014,07,21,03,29,12.00
2014,07,21,03,30,12.00
2014,07,21,03,31,11.90
2014,07,21,03,32,11.90
2014,07,21,03,33,11.90
2014,07,21,03,34,11.80
2014,07,21,03,35,11.80
2014,07,21,03,36,11.80
2014,07,21,03,37,11.80
2014,07,21,03,38,11.70
2014,07,21,03,39,11.70
2014,07,21,03,40,11.70
2014,07,21,03,41,11.60
2014,07,21,03,42,11.60
2014,07,21,03,43,11.60
2014,07,21,03,44,11.50
2014,07,21,03,45,11.50
2014,07,21,03,46,11.50
2014,07,21,03,47,11.40
2014,07,21,03,48,11.40
2014,07,21,03,49,11.40
2014,07,21,03,50,11.40
2014,07,21,03,51,11.40
2014,07,21,03,52,11.30
2014,07,21,03,53,11.30
2014,07,21,03,54,11.30
2014,07,21,03,55,11.30
2014,07,21,03,56,11.30
2014,07,21,03,57,11.30
2014,07,21,03,58,11.30
2014,07,21,03,59,11.30
2014,07,21,04,00,11.30
2014,07,21,04,01,11.30
2014,07,21,04,02,11.30
2014,07,21,04,03,11.20
2014,07,21,04,04,11.20
2014,07,21,04,05,11.20
2014,07,21,04,06,11.20
2014,07,21,04,07,11.20
2014,07,21,04,08,11.20
2014,07,21,04,09,11.20
2014,07,21,04,10,11.10
2014,07,21,04,11,11.10
2014,07,21,04,12,11.10
2014,07,21,04,13,11.10
2014,07,21,04,14,11.10
2014,07,21,04,15,11.00
2014,07,21,04,16,11.00
2014,07,21,04,17,11.00
2014,07,21,04,18,11.00
2014,07,21,04,19,10.90
2014,07,21,04,20,10.90
2014,07,21,04,21,10.90
2014,07,21,04,22,10.90
2014,07,21,04,23,10.90
2014,07,21,04,24,10.90
2014,07,21,04,25,10.90
2014,07,21,04,26,10.90
2014,07,21,04,27,10.90
2014,07,21,04,28,10.90
2014,07,21,04,29,10.90
2014,07,21,04,30,10.90
2014,07,21,04,31,10.90
2014,07,21,04,32,10.90
2014,07,21,04,33,10.90
2014,07,21,04,34,10.90
2014,07,21,04,35,10.90
2014,07,21,04,36,10.90
2014,07,21,04,37,10.80
2014,07,21,04,38,10.80
2014,07,21,04,39,10.80
2014,07,21,04,40,10.80
2014,07,21,04,41,10.80
2014,07,21,04,42,10.80
2014,07,21,04,43,10.80
2014,07,21,04,44,10.70
2014,07,21,04,45,10.70
2014,07,21,04,46,10.70
2014,07,21,04,47,10.70
2014,07,21,04,48,10.70
2014,07,21,04,49,10.70
2014,07,21,04,50,10.60
2014,07,21,04,51,10.60
2014,07,21,04,52,10.60
2014,07,21,04,53,10.60
2014,07,21,04,54,10.60
2014,07,21,04,55,10.60
2014,07,21,04,56,10.60
2014,07,21,04,57,10.50
2014,07,21,04,58,10.50
2014,07,21,04,59,10.50
2014,07,21,05,00,10.50
2014,07,21,05,01,10.40
2014,07,21,05,02,10.40
2014,07,21,05,03,10.40
2014,07,21,05,04,10.40
2014,07,21,05,05,10.40
2014,07,21,05,06,10.30
2014,07,21,05,07,10.30
2014,07,21,05,08,10.30
2014,07,21,05,09,10.30
2014,07,21,05,10,10.30
2014,07,21,05,11,10.30
2014,07,21,05,12,10.30
2014,07,21,05,13,10.30
2014,07,21,05,14,10.30
2014,07,21,05,15,10.30
2014,07,21,05,16,10.30
2014,07,21,05,17,10.30
2014,07,21,05,18,10.30
2014,07,21,05,19,10.30
2014,07,21,05,20,10.30
2014,07,21,05,21,10.30
2014,07,21,05,22,10.20
2014,07,21,05,23,10.20
2014,07,21,05,24,10.20
2014,07,21,05,25,10.20
2014,07,21,05,26,10.20
2014,07,21,05,27,10.20
2014,07,21,05,28,10.20
2014,07,21,05,29,10.20
2014,07,21,05,30,10.20
2014,07,21,05,31,10.10
2014,07,21,05,32,10.10
2014,07,21,05,33,10.10
2014,07,21,05,34,10.10
2014,07,21,05,35,10.10
2014,07,21,05,36,10.10
2014,07,21,05,37,10.10
2014,07,21,05,38,10.10
2014,07,21,05,39,10.10
2014,07,21,05,40,10.00
2014,07,21,05,41,10.00
2014,07,21,05,42,10.00
2014,07,21,05,43,10.00
2014,07,21,05,44,10.00
2014,07,21,05,45,10.00
2014,07,21,05,46,10.00
2014,07,21,05,47,10.00
2014,07,21,05,48,10.00
2014,07,21,05,49,10.00
2014,07,21,05,50,10.00
2014,07,21,05,51,10.00
2014,07,21,05,52,10.00
2014,07,21,05,53,10.00
2014,07,21,05,54,10.00
2014,07,21,05,55,9.90
2014,07,21,05,56,9.90
2014,07,21,05,57,9.90
2014,07,21,05,58,9.90
2014,07,21,05,59,9.90
2014,07,21,06,00,9.90
2014,07,21,06,01,9.90
2014,07,21,06,02,9.90
2014,07,21,06,03,9.80
2014,07,21,06,04,9.80
2014,07,21,06,05,9.80
2014,07,21,06,06,9.80
2014,07,21,06,07,9.80
2014,07,21,06,08,9.80
2014,07,21,06,09,9.80
2014,07,21,06,10,9.80
2014,07,21,06,11,9.80
2014,07,21,06,12,9.80
2014,07,21,06,13,9.80
2014,07,21,06,14,9.80
2014,07,21,06,15,9.80
2014,07,21,06,16,9.80
2014,07,21,06,17,9.80
2014,07,21,06,18,9.80
2014,07,21,06,19,9.80
2014,07,21,06,20,9.80
2014,07,21,06,21,9.90
2014,07,21,06,22,9.90
2014,07,21,06,23,9.90
2014,07,21,06,24,9.90
2014,07,21,06,25,9.90
2014,07,21,06,26,9.90
2014,07,21,06,27,9.90
2014,07,21,06,28,9.90
2014,07,21,06,29,9.90
2014,07,21,06,30,9.90
2014,07,21,06,31,9.90
2014,07,21,06,32,9.90
2014,07,21,06,33,9.90
2014,07,21,06,34,9.90
2014,07,21,06,35,9.90
2014,07,21,06,36,9.90
2014,07,21,06,37,9.90
2014,07,21,06,38,9.90
2014,07,21,06,39,9.90
2014,07,21,06,40,9.90
2014,07,21,06,41,9.90
2014,07,21,06,42,9.90
2014,07,21,06,43,9.90
2014,07,21,06,44,10.00
2014,07,21,06,45,10.00
2014,07,21,06,46,10.00
2014,07,21,06,47,10.00
2014,07,21,06,48,10.00
2014,07,21,06,49,10.00
2014,07,21,06,50,10.10
2014,07,21,06,51,10.10
2014,07,21,06,52,10.10
2014,07,21,06,53,10.10
2014,07,21,06,54,10.10
2014,07,21,06,55,10.20
2014,07,21,06,56,10.20
2014,07,21,06,57,10.20
2014,07,21,06,58,10.20
2014,07,21,06,59,10.20
2014,07,21,07,00,10.30
2014,07,21,07,01,10.30
2014,07,21,07,02,10.30
2014,07,21,07,03,10.30
2014,07,21,07,04,10.30
2014,07,21,07,05,10.40
2014,07,21,07,06,10.40
2014,07,21,07,07,10.50
2014,07,21,07,08,10.50
2014,07,21,07,09,10.60
2014,07,21,07,10,10.60
2014,07,21,07,11,10.70
2014,07,21,07,12,10.70
2014,07,21,07,13,10.80
2014,07,21,07,14,10.80
2014,07,21,07,15,10.90
2014,07,21,07,16,10.90
2014,07,21,07,17,11.00
2014,07,21,07,18,11.10
2014,07,21,07,19,11.10
2014,07,21,07,20,11.20
2014,07,21,07,21,11.30
2014,07,21,07,22,11.40
2014,07,21,07,23,11.60
2014,07,21,07,24,11.70
2014,07,21,07,25,11.80
2014,07,21,07,26,11.90
2014,07,21,07,27,12.00
2014,07,21,07,28,12.10
2014,07,21,07,29,12.20
2014,07,21,07,30,12.30
2014,07,21,07,31,12.30
2014,07,21,07,32,12.40
2014,07,21,07,33,12.50
2014,07,21,07,34,12.60
2014,07,21,07,35,12.70
2014,07,21,07,36,12.80
2014,07,21,07,37,12.90
2014,07,21,07,38,13.00
2014,07,21,07,39,13.10
2014,07,21,07,40,13.20
2014,07,21,07,41,13.30
2014,07,21,07,42,13.40
2014,07,21,07,43,13.50
2014,07,21,07,44,13.60
2014,07,21,07,45,13.70
2014,07,21,07,46,13.80
2014,07,21,07,47,13.80
2014,07,21,07,48,13.90
2014,07,21,07,49,13.90
2014,07,21,07,50,13.90
2014,07,21,07,51,14.00
2014,07,21,07,52,14.00
2014,07,21,07,53,14.00
2014,07,21,07,54,14.00
2014,07,21,07,55,13.90
2014,07,21,07,56,13.90
2014,07,21,07,57,13.80
2014,07,21,07,58,13.70
2014,07,21,07,59,13.70
2014,07,21,08,00,13.70
2014,07,21,08,01,13.70
2014,07,21,08,02,13.80
2014,07,21,08,03,13.80
2014,07,21,08,04,13.80
2014,07,21,08,05,13.80
2014,07,21,08,06,13.80
2014,07,21,08,07,13.80
2014,07,21,08,08,13.80
2014,07,21,08,09,13.80
2014,07,21,08,10,13.80
2014,07,21,08,11,13.80
2014,07,21,08,12,13.90
2014,07,21,08,13,13.90
2014,07,21,08,14,13.90
2014,07,21,08,15,13.90
2014,07,21,08,16,14.00
2014,07,21,08,17,14.00
2014,07,21,08,18,14.10
2014,07,21,08,19,14.10
2014,07,21,08,20,14.20
2014,07,21,08,21,14.20
2014,07,21,08,22,14.30
2014,07,21,08,23,14.40
2014,07,21,08,24,14.40
2014,07,21,08,25,14.50
2014,07,21,08,26,14.50
2014,07,21,08,27,14.60
2014,07,21,08,28,14.60
2014,07,21,08,29,14.70
2014,07,21,08,30,14.70
2014,07,21,08,31,14.70
2014,07,21,08,32,14.80
2014,07,21,08,33,14.80
2014,07,21,08,34,14.80
2014,07,21,08,35,14.90
2014,07,21,08,36,14.90
2014,07,21,08,37,14.90
2014,07,21,08,38,15.00
2014,07,21,08,39,15.00
2014,07,21,08,40,15.10
2014,07,21,08,41,15.10
2014,07,21,08,42,15.10
2014,07,21,08,43,15.20
2014,07,21,08,44,15.30
2014,07,21,08,45,15.30
2014,07,21,08,46,15.40
2014,07,21,08,47,15.40
2014,07,21,08,48,15.50
2014,07,21,08,49,15.60
2014,07,21,08,50,15.60
2014,07,21,08,51,15.70
2014,07,21,08,52,15.70
2014,07,21,08,53,15.80
2014,07,21,08,54,15.80
2014,07,21,08,55,15.80
2014,07,21,08,56,15.90
2014,07,21,08,57,15.90
2014,07,21,08,58,15.90
2014,07,21,08,59,15.90
2014,07,21,09,00,15.90
2014,07,21,09,01,15.90
2014,07,21,09,02,16.00
2014,07,21,09,03,16.00
2014,07,21,09,04,16.00
2014,07,21,09,05,16.00
2014,07,21,09,06,16.00
2014,07,21,09,07,16.00
2014,07,21,09,08,16.10
2014,07,21,09,09,16.10
2014,07,21,09,10,16.10
2014,07,21,09,11,16.10
2014,07,21,09,12,16.00
2014,07,21,09,13,16.00
2014,07,21,09,14,15.90
2014,07,21,09,15,15.90
2014,07,21,09,16,15.90
2014,07,21,09,17,15.90
2014,07,21,09,18,15.90
2014,07,21,09,19,15.90
2014,07,21,09,20,15.90
2014,07,21,09,21,15.90
2014,07,21,09,22,15.90
2014,07,21,09,23,15.80
2014,07,21,09,24,15.80
2014,07,21,09,25,15.90
2014,07,21,09,26,15.90
2014,07,21,09,27,15.90
2014,07,21,09,28,15.90
2014,07,21,09,29,15.90
2014,07,21,09,30,15.90
2014,07,21,09,31,15.90
2014,07,21,09,32,16.00
2014,07,21,09,33,16.00
2014,07,21,09,34,16.10
2014,07,21,09,35,16.10
2014,07,21,09,36,16.20
2014,07,21,09,37,16.20
2014,07,21,09,38,16.30
2014,07,21,09,39,16.30
2014,07,21,09,40,16.30
2014,07,21,09,41,16.20
2014,07,21,09,42,16.20
2014,07,21,09,43,16.10
2014,07,21,09,44,16.10
2014,07,21,09,45,16.00
2014,07,21,09,46,16.00
2014,07,21,09,47,16.00
2014,07,21,09,48,16.00
2014,07,21,09,49,15.90
2014,07,21,09,50,15.90
2014,07,21,09,51,15.90
2014,07,21,09,52,16.00
2014,07,21,09,53,16.00
2014,07,21,09,54,16.10
2014,07,21,09,55,16.10
2014,07,21,09,56,16.20
2014,07,21,09,57,16.30
2014,07,21,09,58,16.40
2014,07,21,09,59,16.50
2014,07,21,10,00,16.60
2014,07,21,10,01,16.70
2014,07,21,10,02,16.70
2014,07,21,10,03,16.60
2014,07,21,10,04,16.60
2014,07,21,10,05,16.60
2014,07,21,10,06,16.60
2014,07,21,10,07,16.70
2014,07,21,10,08,16.80
2014,07,21,10,09,16.70
2014,07,21,10,10,16.70
2014,07,21,10,11,16.60
2014,07,21,10,12,16.50
2014,07,21,10,13,16.50
2014,07,21,10,14,16.40
2014,07,21,10,15,16.40
2014,07,21,10,16,16.30
2014,07,21,10,17,16.30
2014,07,21,10,18,16.20
2014,07,21,10,19,16.20
2014,07,21,10,20,16.20
2014,07,21,10,21,16.10
2014,07,21,10,22,16.10
2014,07,21,10,23,16.10
2014,07,21,10,24,16.00
2014,07,21,10,25,16.00
2014,07,21,10,26,16.00
2014,07,21,10,27,15.90
2014,07,21,10,28,15.90
2014,07,21,10,29,15.90
2014,07,21,10,30,15.80
2014,07,21,10,31,15.80
2014,07,21,10,32,15.70
2014,07,21,10,33,15.70
2014,07,21,10,34,15.70
2014,07,21,10,35,15.70
2014,07,21,10,36,15.60
2014,07,21,10,37,15.70
2014,07,21,10,38,15.70
2014,07,21,10,39,15.70
2014,07,21,10,40,15.80
2014,07,21,10,41,15.80
2014,07,21,10,42,15.80
2014,07,21,10,43,15.80
2014,07,21,10,44,15.80
2014,07,21,10,45,15.90
2014,07,21,10,46,16.00
2014,07,21,10,47,16.10
2014,07,21,10,48,16.20
2014,07,21,10,49,16.20
2014,07,21,10,50,16.20
2014,07,21,10,51,16.20
2014,07,21,10,52,16.20
2014,07,21,10,53,16.20
2014,07,21,10,54,16.20
2014,07,21,10,55,16.20
2014,07,21,10,56,16.20
2014,07,21,10,57,16.30
2014,07,21,10,58,16.30
2014,07,21,10,59,16.30
2014,07,21,11,00,16.30
2014,07,21,11,01,16.30
2014,07,21,11,02,16.30
2014,07,21,11,03,16.30
2014,07,21,11,04,16.40
2014,07,21,11,05,16.40
2014,07,21,11,06,16.40
2014,07,21,11,07,16.50
2014,07,21,11,08,16.60
2014,07,21,11,09,16.60
2014,07,21,11,10,16.70
2014,07,21,11,11,16.80
2014,07,21,11,12,16.60
2014,07,21,11,13,16.60
2014,07,21,11,14,16.40
2014,07,21,11,15,16.30
2014,07,21,11,16,16.30
2014,07,21,11,17,16.30
2014,07,21,11,18,16.40
2014,07,21,11,19,16.40
2014,07,21,11,20,16.50
2014,07,21,11,21,16.60
2014,07,21,11,22,16.60
2014,07,21,11,23,16.60
2014,07,21,11,24,16.60
2014,07,21,11,25,16.60
2014,07,21,11,26,16.70
2014,07,21,11,27,16.80
2014,07,21,11,28,16.90
2014,07,21,11,29,17.00
2014,07,21,11,30,17.00
2014,07,21,11,31,17.10
2014,07,21,11,32,17.20
2014,07,21,11,33,17.20
2014,07,21,11,34,17.20
2014,07,21,11,35,17.30
2014,07,21,11,36,17.30
2014,07,21,11,37,17.40
2014,07,21,11,38,17.40
2014,07,21,11,39,17.50
2014,07,21,11,40,17.50
2014,07,21,11,41,17.50
2014,07,21,11,42,17.40
2014,07,21,11,43,17.40
2014,07,21,11,44,17.40
2014,07,21,11,45,17.50
2014,07,21,11,46,17.50
2014,07,21,11,47,17.50
2014,07,21,11,48,17.40
2014,07,21,11,49,17.40
2014,07,21,11,50,17.40
2014,07,21,11,51,17.40
2014,07,21,11,52,17.50
2014,07,21,11,53,17.50
2014,07,21,11,54,17.50
2014,07,21,11,55,17.50
2014,07,21,11,56,17.60
2014,07,21,11,57,17.70
2014,07,21,11,58,17.70
2014,07,21,11,59,17.90
2014,07,21,12,00,18.00
2014,07,21,12,01,18.10
2014,07,21,12,02,18.20
2014,07,21,12,03,18.20
2014,07,21,12,04,18.30
2014,07,21,12,05,18.40
2014,07,21,12,06,18.50
2014,07,21,12,07,18.50
2014,07,21,12,08,18.50
2014,07,21,12,09,18.50
2014,07,21,12,10,18.50
2014,07,21,12,11,18.50
2014,07,21,12,12,18.50
2014,07,21,12,13,18.60
2014,07,21,12,14,18.70
2014,07,21,12,15,18.60
2014,07,21,12,16,18.60
2014,07,21,12,17,18.50
2014,07,21,12,18,18.40
2014,07,21,12,19,18.30
2014,07,21,12,20,18.40
2014,07,21,12,21,18.40
2014,07,21,12,22,18.50
2014,07,21,12,23,18.50
2014,07,21,12,24,18.40
2014,07,21,12,25,18.50
2014,07,21,12,26,18.40
2014,07,21,12,27,18.30
2014,07,21,12,28,18.30
2014,07,21,12,29,18.20
2014,07,21,12,30,18.20
2014,07,21,12,31,18.10
2014,07,21,12,32,18.10
2014,07,21,12,33,18.10
2014,07,21,12,34,18.20
2014,07,21,12,35,18.30
2014,07,21,12,36,18.40
2014,07,21,12,37,18.50
2014,07,21,12,38,18.60
2014,07,21,12,39,18.70
2014,07,21,12,40,18.70
2014,07,21,12,41,18.70
2014,07,21,12,42,18.60
2014,07,21,12,43,18.60
2014,07,21,12,44,18.60
2014,07,21,12,45,18.70
2014,07,21,12,46,18.70
2014,07,21,12,47,18.80
2014,07,21,12,48,18.80
2014,07,21,12,49,18.90
2014,07,21,12,50,18.90
2014,07,21,12,51,18.90
2014,07,21,12,52,19.00
2014,07,21,12,53,19.00
2014,07,21,12,54,19.10
2014,07,21,12,55,19.10
2014,07,21,12,56,19.20
2014,07,21,12,57,19.20
2014,07,21,12,58,19.30
2014,07,21,12,59,19.40
2014,07,21,13,00,19.50
2014,07,21,13,01,19.50
2014,07,21,13,02,19.60
2014,07,21,13,03,19.60
2014,07,21,13,04,19.70
2014,07,21,13,05,19.70
2014,07,21,13,06,19.80
2014,07,21,13,07,19.80
2014,07,21,13,08,19.80
2014,07,21,13,09,19.90
2014,07,21,13,10,19.80
2014,07,21,13,11,19.80
2014,07,21,13,12,19.80
2014,07,21,13,13,19.90
2014,07,21,13,14,19.90
2014,07,21,13,15,19.90
2014,07,21,13,16,19.90
2014,07,21,13,17,19.80
2014,07,21,13,18,19.80
2014,07,21,13,19,19.80
2014,07,21,13,20,19.70
2014,07,21,13,21,19.70
2014,07,21,13,22,19.70
2014,07,21,13,23,19.60
2014,07,21,13,24,19.60
2014,07,21,13,25,19.60
2014,07,21,13,26,19.60
2014,07,21,13,27,19.60
2014,07,21,13,28,19.60
2014,07,21,13,29,19.60
2014,07,21,13,30,19.60
2014,07,21,13,31,19.60
2014,07,21,13,32,19.60
2014,07,21,13,33,19.60
2014,07,21,13,34,19.70
2014,07,21,13,35,19.70
2014,07,21,13,36,19.80
2014,07,21,13,37,19.80
2014,07,21,13,38,19.80
2014,07,21,13,39,19.80
2014,07,21,13,40,19.80
2014,07,21,13,41,19.80
2014,07,21,13,42,19.70
2014,07,21,13,43,19.80
2014,07,21,13,44,19.80
2014,07,21,13,45,19.80
2014,07,21,13,46,19.80
2014,07,21,13,47,19.80
2014,07,21,13,48,19.80
2014,07,21,13,49,19.90
2014,07,21,13,50,19.90
2014,07,21,13,51,19.90
2014,07,21,13,52,19.90
2014,07,21,13,53,20.00
2014,07,21,13,54,20.10
2014,07,21,13,55,20.10
2014,07,21,13,56,20.10
2014,07,21,13,57,20.00
2014,07,21,13,58,20.00
2014,07,21,13,59,20.00
2014,07,21,14,00,20.00
2014,07,21,14,01,20.10
2014,07,21,14,02,20.10
2014,07,21,14,03,20.20
2014,07,21,14,04,20.40
2014,07,21,14,05,20.40
2014,07,21,14,06,20.50
2014,07,21,14,07,20.60
2014,07,21,14,08,20.60
2014,07,21,14,09,20.60
2014,07,21,14,10,20.70
2014,07,21,14,11,20.70
2014,07,21,14,12,20.70
2014,07,21,14,13,20.60
2014,07,21,14,14,20.50
2014,07,21,14,15,20.50
2014,07,21,14,16,20.40
2014,07,21,14,17,20.40
2014,07,21,14,18,20.40
2014,07,21,14,19,20.40
2014,07,21,14,20,20.40
2014,07,21,14,21,20.30
2014,07,21,14,22,20.30
2014,07,21,14,23,20.30
2014,07,21,14,24,20.30
2014,07,21,14,25,20.30
2014,07,21,14,26,20.40
2014,07,21,14,27,20.40
2014,07,21,14,28,20.30
2014,07,21,14,29,20.30
2014,07,21,14,30,20.30
2014,07,21,14,31,20.30
2014,07,21,14,32,20.30
2014,07,21,14,33,20.30
2014,07,21,14,34,20.40
2014,07,21,14,35,20.40
2014,07,21,14,36,20.40
2014,07,21,14,37,20.40
2014,07,21,14,38,20.40
2014,07,21,14,39,20.40
2014,07,21,14,40,20.50
2014,07,21,14,41,20.50
2014,07,21,14,42,20.60
2014,07,21,14,43,20.70
2014,07,21,14,44,20.70
2014,07,21,14,45,20.70
2014,07,21,14,46,20.80
2014,07,21,14,47,20.80
2014,07,21,14,48,20.80
2014,07,21,14,49,20.90
2014,07,21,14,50,20.90
2014,07,21,14,51,21.00
2014,07,21,14,52,21.00
2014,07,21,14,53,21.00
2014,07,21,14,54,21.10
2014,07,21,14,55,21.10
2014,07,21,14,56,21.10
2014,07,21,14,57,21.10
2014,07,21,14,58,21.30
2014,07,21,14,59,21.40
2014,07,21,15,00,21.50
2014,07,21,15,01,21.50
2014,07,21,15,02,21.60
2014,07,21,15,03,21.60
2014,07,21,15,04,21.60
2014,07,21,15,05,21.60
2014,07,21,15,06,21.60
2014,07,21,15,07,21.60
2014,07,21,15,08,21.60
2014,07,21,15,09,21.60
2014,07,21,15,10,21.60
2014,07,21,15,11,21.60
2014,07,21,15,12,21.60
2014,07,21,15,13,21.60
2014,07,21,15,14,21.60
2014,07,21,15,15,21.60
2014,07,21,15,16,21.60
2014,07,21,15,17,21.70
2014,07,21,15,18,21.70
2014,07,21,15,19,21.70
2014,07,21,15,20,21.70
2014,07,21,15,21,21.80
2014,07,21,15,22,21.80
2014,07,21,15,23,21.80
2014,07,21,15,24,21.80
2014,07,21,15,25,21.70
2014,07,21,15,26,21.80
2014,07,21,15,27,21.80
2014,07,21,15,28,21.80
2014,07,21,15,29,21.80
2014,07,21,15,30,21.80
2014,07,21,15,31,21.80
2014,07,21,15,32,21.90
2014,07,21,15,33,21.90
2014,07,21,15,34,22.00
2014,07,21,15,35,22.00
2014,07,21,15,36,21.90
2014,07,21,15,37,22.00
2014,07,21,15,38,22.10
2014,07,21,15,39,22.10
2014,07,21,15,40,22.20
2014,07,21,15,41,22.20
2014,07,21,15,42,22.20
2014,07,21,15,43,22.10
2014,07,21,15,44,22.00
2014,07,21,15,45,21.90
2014,07,21,15,46,21.90
2014,07,21,15,47,21.90
2014,07,21,15,48,21.90
2014,07,21,15,49,21.90
2014,07,21,15,50,21.80
2014,07,21,15,51,21.70
2014,07,21,15,52,21.70
2014,07,21,15,53,21.60
2014,07,21,15,54,21.60
2014,07,21,15,55,21.60
2014,07,21,15,56,21.70
2014,07,21,15,57,21.70
2014,07,21,15,58,21.70
2014,07,21,15,59,21.60
2014,07,21,16,00,21.60
2014,07,21,16,01,21.50
2014,07,21,16,02,21.50
2014,07,21,16,03,21.50
2014,07,21,16,04,21.40
2014,07,21,16,05,21.40
2014,07,21,16,06,21.40
2014,07,21,16,07,21.40
2014,07,21,16,08,21.40
2014,07,21,16,09,21.30
2014,07,21,16,10,21.30
2014,07,21,16,11,21.30
2014,07,21,16,12,21.30
2014,07,21,16,13,21.40
2014,07,21,16,14,21.50
2014,07,21,16,15,21.60
2014,07,21,16,16,21.70
2014,07,21,16,17,21.70
2014,07,21,16,18,21.80
2014,07,21,16,19,21.80
2014,07,21,16,20,21.90
2014,07,21,16,21,22.00
2014,07,21,16,22,22.00
2014,07,21,16,23,22.10
2014,07,21,16,24,22.10
2014,07,21,16,25,22.00
2014,07,21,16,26,22.00
2014,07,21,16,27,22.00
2014,07,21,16,28,22.00
2014,07,21,16,29,22.10
2014,07,21,16,30,22.20
2014,07,21,16,31,22.20
2014,07,21,16,32,22.30
2014,07,21,16,33,22.30
2014,07,21,16,34,22.40
2014,07,21,16,35,22.30
2014,07,21,16,36,22.20
2014,07,21,16,37,22.20
2014,07,21,16,38,22.30
2014,07,21,16,39,22.30
2014,07,21,16,40,22.30
2014,07,21,16,41,22.30
2014,07,21,16,42,22.30
2014,07,21,16,43,22.30
2014,07,21,16,44,22.30
2014,07,21,16,45,22.40
2014,07,21,16,46,22.40
2014,07,21,16,47,22.50
2014,07,21,16,48,22.40
2014,07,21,16,49,22.30
2014,07,21,16,50,22.30
2014,07,21,16,51,22.30
2014,07,21,16,52,22.30
2014,07,21,16,53,22.30
2014,07,21,16,54,22.30
2014,07,21,16,55,22.30
2014,07,21,16,56,22.30
2014,07,21,16,57,22.30
2014,07,21,16,58,22.30
2014,07,21,16,59,22.30
2014,07,21,17,00,22.30
2014,07,21,17,01,22.20
2014,07,21,17,02,22.20
2014,07,21,17,03,22.20
2014,07,21,17,04,22.10
2014,07,21,17,05,22.00
2014,07,21,17,06,22.00
2014,07,21,17,07,21.90
2014,07,21,17,08,21.90
2014,07,21,17,09,21.90
2014,07,21,17,10,21.90
2014,07,21,17,11,21.90
2014,07,21,17,12,21.90
2014,07,21,17,13,22.00
2014,07,21,17,14,22.00
2014,07,21,17,15,22.00
2014,07,21,17,16,22.00
2014,07,21,17,17,22.00
2014,07,21,17,18,22.00
2014,07,21,17,19,22.00
2014,07,21,17,20,22.10
2014,07,21,17,21,22.10